When you browse on this site, cookies collect data to enhance your experience and personalize the content and advertising you see.
Visit our Privacy Policy to learn more. By continuing to use the site, you agree to this use of cookies and data.
  • In Slovakia
  • List of Countries
  • For 7 days
  • Water Temperature
  • Satellite Maps
  • Weather Map
  • Weather Widgets
  • user-avatar
    Login

    Hourly Weather Mazari Sharif

    Today, 23 January, Wednesday

    Time Temperature Precipitation Wind Pressure Humidity
    00:00 -2°C° 0 mm 1 mps 654 mmHg 67%
    01:00 -2°C° 0 mm 1 mps 655 mmHg 66%
    02:00 -2°C° 0 mm 1 mps 655 mmHg 63%
    03:00 -2°C° 0 mm 1 mps 655 mmHg 61%
    04:00 -2°C° 0 mm 1 mps 655 mmHg 58%
    05:00 -2°C° 0 mm 1 mps 655 mmHg 55%
    06:00 -2°C° 0 mm 1 mps 655 mmHg 52%
    07:00 -2°C° 0 mm 1 mps 656 mmHg 49%
    08:00 0°C° 0 mm 1 mps 656 mmHg 42%
    09:00 +2°C° 0 mm 1 mps 656 mmHg 35%
    10:00 +3°C° 0 mm 1 mps 657 mmHg 29%
    11:00 +4°C° 0 mm 1 mps 656 mmHg 29%
    12:00 +4°C° 0 mm 1 mps 656 mmHg 28%
    13:00 +5°C° 0 mm 1 mps 656 mmHg 28%
    14:00 +4°C° 0 mm 1 mps 656 mmHg 31%
    15:00 +4°C° 0 mm 1 mps 656 mmHg 34%
    16:00 +4°C° 0 mm 1 mps 656 mmHg 37%
    17:00 +3°C° 0 mm 1 mps 657 mmHg 39%
    18:00 +2°C° 0 mm 1 mps 657 mmHg 40%
    19:00 +1°C° 0 mm 1 mps 658 mmHg 41%
    20:00 +1°C° 0 mm 1 mps 658 mmHg 40%
    21:00 0°C° 0 mm 1 mps 658 mmHg 39%
    22:00 0°C° 0 mm 1 mps 659 mmHg 37%
    23:00 0°C° 0 mm 1 mps 659 mmHg 38%

    Tomorrow, 24 January, Thursday

    Time Temperature Precipitation Wind Pressure Humidity
    00:00 0°C° 0 mm 1 mps 659 mmHg 38%
    01:00 0°C° 0 mm 1 mps 659 mmHg 38%
    02:00 0°C° 0 mm 1 mps 659 mmHg 38%
    03:00 0°C° 0 mm 1 mps 659 mmHg 39%
    04:00 -1°C° 0 mm 1 mps 659 mmHg 39%
    05:00 -1°C° 0 mm 1 mps 660 mmHg 38%
    06:00 -1°C° 0 mm 1 mps 660 mmHg 37%
    07:00 -1°C° 0 mm 1 mps 660 mmHg 37%
    08:00 +1°C° 0 mm 1 mps 660 mmHg 33%
    09:00 +2°C° 0 mm 1 mps 661 mmHg 29%
    10:00 +4°C° 0 mm 1 mps 661 mmHg 25%
    11:00 +4°C° 0 mm 1 mps 661 mmHg 25%
    12:00 +5°C° 0 mm 1 mps 660 mmHg 25%
    13:00 +5°C° 0 mm 1 mps 660 mmHg 25%
    14:00 +5°C° 0 mm 1 mps 660 mmHg 28%
    15:00 +4°C° 0 mm 1 mps 660 mmHg 31%
    16:00 +4°C° 0 mm 1 mps 660 mmHg 34%
    17:00 +3°C° 0 mm 1 mps 660 mmHg 36%
    18:00 +2°C° 0 mm 1 mps 660 mmHg 38%
    19:00 +1°C° 0 mm 1 mps 660 mmHg 40%
    20:00 +1°C° 0 mm 1 mps 660 mmHg 39%
    21:00 +1°C° 0 mm 1 mps 660 mmHg 38%
    22:00 +1°C° 0 mm 1 mps 660 mmHg 37%
    23:00 -2°C° 0 mm 2 mps 660 mmHg 37%

    Day after tomorrow, 25 January, Friday

    Time Temperature Precipitation Wind Pressure Humidity
    00:00 -2°C° 0 mm 2 mps 660 mmHg 37%
    01:00 -2°C° 0 mm 2 mps 659 mmHg 37%
    02:00 -2°C° 0 mm 2 mps 659 mmHg 36%
    03:00 -2°C° 0 mm 2 mps 659 mmHg 35%
    04:00 -2°C° 0 mm 2 mps 658 mmHg 34%
    05:00 -2°C° 0 mm 2 mps 659 mmHg 32%
    06:00 -2°C° 0 mm 2 mps 659 mmHg 31%
    07:00 -2°C° 0 mm 2 mps 659 mmHg 29%
    08:00 -1°C° 0 mm 2 mps 659 mmHg 25%
    09:00 +2°C° 0 mm 2 mps 659 mmHg 22%
    10:00 +5°C° 0 mm 1 mps 659 mmHg 18%
    11:00 +5°C° 0 mm 1 mps 659 mmHg 17%
    12:00 +5°C° 0 mm 2 mps 658 mmHg 17%
    13:00 +6°C° 0 mm 2 mps 658 mmHg 16%
    14:00 +5°C° 0 mm 2 mps 658 mmHg 20%
    15:00 +5°C° 0 mm 2 mps 657 mmHg 23%
    16:00 +4°C° 0 mm 2 mps 657 mmHg 26%
    17:00 +3°C° 0 mm 2 mps 657 mmHg 27%
    18:00 +2°C° 0 mm 2 mps 658 mmHg 28%
    19:00 +1°C° 0 mm 2 mps 658 mmHg 30%
    20:00 +1°C° 0 mm 2 mps 658 mmHg 30%
    21:00 +1°C° 0 mm 2 mps 658 mmHg 30%
    22:00 +1°C° 0 mm 2 mps 658 mmHg 30%
    23:00 +1°C° 0 mm 2 mps 658 mmHg 30%

    26 January, Saturday

    Time Temperature Precipitation Wind Pressure Humidity
    00:00 -1°C° 0 mm 2 mps 658 mmHg 29%
    01:00 -1°C° 0 mm 2 mps 657 mmHg 29%
    02:00 -1°C° 0 mm 2 mps 657 mmHg 28%
    03:00 -1°C° 0 mm 2 mps 657 mmHg 26%
    04:00 -1°C° 0 mm 2 mps 657 mmHg 25%
    05:00 -1°C° 0 mm 2 mps 657 mmHg 23%
    06:00 -1°C° 0 mm 2 mps 658 mmHg 21%
    07:00 -1°C° 0 mm 2 mps 658 mmHg 20%
    08:00 +2°C° 0 mm 2 mps 658 mmHg 17%
    09:00 +4°C° 0 mm 2 mps 658 mmHg 15%
    10:00 +6°C° 0 mm 2 mps 659 mmHg 12%
    11:00 +6°C° 0 mm 2 mps 658 mmHg 12%
    12:00 +8°C° 0 mm 1 mps 658 mmHg 13%
    13:00 +8°C° 0 mm 1 mps 658 mmHg 13%
    14:00 +8°C° 0 mm 1 mps 657 mmHg 16%
    15:00 +7°C° 0 mm 1 mps 657 mmHg 20%
    16:00 +7°C° 0 mm 1 mps 657 mmHg 23%
    17:00 +6°C° 0 mm 1 mps 658 mmHg 24%
    18:00 +6°C° 0 mm 1 mps 658 mmHg 24%
    19:00 +5°C° 0 mm 1 mps 658 mmHg 24%
    20:00 +4°C° 0 mm 2 mps 659 mmHg 26%
    21:00 +4°C° 0 mm 2 mps 659 mmHg 28%
    22:00 +3°C° 0 mm 3 mps 659 mmHg 31%
    23:00 +3°C° 0 mm 3 mps 659 mmHg 33%

    27 January, Sunday

    Time Temperature Precipitation Wind Pressure Humidity
    00:00 +3°C° 0 mm 2 mps 659 mmHg 35%
    01:00 +3°C° 0 mm 2 mps 659 mmHg 37%
    02:00 +3°C° 0 mm 2 mps 659 mmHg 37%
    03:00 +2°C° 0 mm 3 mps 659 mmHg 37%
    04:00 +1°C° 0 mm 3 mps 659 mmHg 36%
    05:00 +1°C° 0 mm 3 mps 659 mmHg 36%
    06:00 +1°C° 0 mm 3 mps 659 mmHg 35%
    07:00 +1°C° 0 mm 3 mps 659 mmHg 35%
    08:00 +3°C° 0 mm 3 mps 659 mmHg 32%
    09:00 +6°C° 0 mm 2 mps 660 mmHg 29%
    10:00 +8°C° 0 mm 2 mps 660 mmHg 26%
    11:00 +9°C° 0 mm 2 mps 659 mmHg 24%
    12:00 +10°C° 0 mm 2 mps 659 mmHg 23%
    13:00 +12°C° 0 mm 2 mps 658 mmHg 21%
    14:00 +10°C° 0 mm 2 mps 658 mmHg 23%
    15:00 +10°C° 0 mm 2 mps 658 mmHg 25%
    16:00 +9°C° 0 mm 3 mps 658 mmHg 26%
    17:00 +8°C° 0 mm 3 mps 658 mmHg 29%
    18:00 +7°C° 0 mm 3 mps 658 mmHg 31%
    19:00 +5°C° 0 mm 3 mps 659 mmHg 34%
    20:00 +5°C° 0 mm 3 mps 659 mmHg 33%
    21:00 +5°C° 0 mm 3 mps 659 mmHg 33%
    22:00 +5°C° 0 mm 3 mps 659 mmHg 33%
    23:00 +5°C° 0 mm 3 mps 658 mmHg 32%

    28 January, Monday

    Time Temperature Precipitation Wind Pressure Humidity
    00:00 +5°C° 0 mm 3 mps 658 mmHg 30%
    01:00 +5°C° 0 mm 3 mps 658 mmHg 29%
    02:00 +5°C° 0 mm 3 mps 658 mmHg 28%
    03:00 +5°C° 0 mm 3 mps 658 mmHg 28%
    04:00 +5°C° 0 mm 3 mps 657 mmHg 28%
    05:00 +5°C° 0.1 mm 3 mps 657 mmHg 28%
    06:00 +5°C° 0.1 mm 3 mps 658 mmHg 29%
    07:00 +5°C° 0.1 mm 4 mps 658 mmHg 30%
    08:00 +8°C° 0 mm 3 mps 658 mmHg 31%
    09:00 +10°C° 0 mm 3 mps 658 mmHg 31%
    10:00 +12°C° 0 mm 2 mps 659 mmHg 32%
    11:00 +13°C° 0 mm 2 mps 658 mmHg 32%
    12:00 +14°C° 0 mm 2 mps 658 mmHg 32%
    13:00 +15°C° 0 mm 2 mps 658 mmHg 31%
    14:00 +15°C° 0 mm 2 mps 657 mmHg 32%
    15:00 +14°C° 0 mm 2 mps 657 mmHg 33%
    16:00 +14°C° 0 mm 2 mps 657 mmHg 34%
    17:00 +13°C° 0 mm 2 mps 656 mmHg 36%
    18:00 +12°C° 0 mm 2 mps 656 mmHg 39%
    19:00 +10°C° 0 mm 2 mps 655 mmHg 41%
    20:00 +10°C° 0.1 mm 3 mps 655 mmHg 42%
    21:00 +10°C° 0.1 mm 3 mps 655 mmHg 43%
    22:00 +10°C° 0.1 mm 3 mps 654 mmHg 45%
    23:00 +9°C° 0.3 mm 2 mps 654 mmHg 48%
    Show more